OpenBCM V1.07b12 (Linux)

Packet Radio Mailbox

DB0FHN

[JN59NK Nuernberg]

 Login: GUEST





  
ZS6FB  > KEPS     04.05.03 20:42l 151 Lines 3937 Bytes #999 (0) @ AMSAT
BID : ORB03121.O
Read: DB0FHN GUEST
Subj: Orbital Elements  03121.OSCAR
Path: DB0FHN<DB0ZWI<DB0HOT<DB0MRW<OK0PKL<OK0PPL<RZ6HXA<UT4NF<UT1IZA<HA8FY<
      HA3PG<7M3TJZ<F6BZU<TU5EX<F3KT<ZS6FB
Sent: 030502/0832Z @:ZS6FB.MPU.ZAF.AF #:63645 PACTOR-2: XFBB7.04 $:ORB03121.O
From: ZS6FB@ZS6FB.MPU.ZAF.AF
To  : KEPS@AMSAT


HR AMSAT ORBITAL ELEMENTS FOR OSCAR SATELLITES
FROM WA5QGD FORT WORTH,TX May 1, 2003
SEND SUBSCRIBE/UNSUBSCRIBE TO majordomo@amsat.org ONLY
BID: ORB03121.O
TO ALL RADIO AMATEURS BT

Satellite: AO-07
Catalog number: 07530
Epoch time:      03120.71951462
Element set:    0183
Inclination:      101.7449 deg
RA of node:       167.7991 deg
Eccentricity:    0.0012025
Arg of perigee:   301.3029 deg
Mean anomaly:     058.6866 deg
Mean motion:   12.53565312 rev/day
Decay rate:       -2.9e-07 rev/day^2
Epoch rev:           30210
Checksum:              270

Satellite: AO-10
Catalog number: 14129
Epoch time:      03116.43626042
Element set:     931
Inclination:       26.1009 deg
RA of node:       153.3817 deg
Eccentricity:    0.6000972
Arg of perigee:   347.0699 deg
Mean anomaly:       2.7223 deg
Mean motion:    2.05867525 rev/day
Decay rate:       1.45e-06 rev/day^2
Epoch rev:           14941
Checksum:              272

Satellite: UO-11
Catalog number: 14781
Epoch time:      03121.36797337
Element set:     135
Inclination:       98.1275 deg
RA of node:        95.9092 deg
Eccentricity:    0.0009588
Arg of perigee:   348.1120 deg
Mean anomaly:      11.9867 deg
Mean motion:   14.78214780 rev/day
Decay rate:      1.816e-05 rev/day^2
Epoch rev:            2684
Checksum:              318

Satellite: RS-10/11
Catalog number: 18129
Epoch time:      03120.94279541
Element set:    0230
Inclination:      082.9211 deg
RA of node:       093.7623 deg
Eccentricity:    0.0013176
Arg of perigee:   034.7405 deg
Mean anomaly:     325.4606 deg
Mean motion:   13.72708764 rev/day
Decay rate:       1.03e-06 rev/day^2
Epoch rev:           79430
Checksum:              278

Satellite: FO-20
Catalog number: 20480
Epoch time:      03121.89249311
Element set:     481
Inclination:       99.0564 deg
RA of node:        71.0865 deg
Eccentricity:    0.0539256
Arg of perigee:   200.0422 deg
Mean anomaly:     157.8745 deg
Mean motion:   12.83332553 rev/day
Decay rate:        3.4e-07 rev/day^2
Epoch rev:           61979
Checksum:              295

Satellite: RS-12/13
Catalog number: 21089
Epoch time:      03120.95718452
Element set:    0510
Inclination:      082.9195 deg
RA of node:       128.4179 deg
Eccentricity:    0.0030969
Arg of perigee:   086.6964 deg
Mean anomaly:     273.7736 deg
Mean motion:   13.74411994 rev/day
Decay rate:        9.2e-07 rev/day^2
Epoch rev:           61359
Checksum:              336

Satellite: RS-15
Catalog number: 23439
Epoch time:      03120.95675869
Element set:    0707
Inclination:      064.8129 deg
RA of node:       286.0436 deg
Eccentricity:    0.0146435
Arg of perigee:   101.2650 deg
Mean anomaly:     260.4773 deg
Mean motion:   11.27548761 rev/day
Decay rate:       -3.5e-07 rev/day^2
Epoch rev:           34364
Checksum:              310

Satellite: FO-29
Catalog number: 24278
Epoch time:      03120.90994380
Element set:    0580
Inclination:      098.5499 deg
RA of node:       262.4806 deg
Eccentricity:    0.0351455
Arg of perigee:   031.6778 deg
Mean anomaly:     330.4991 deg
Mean motion:   13.52879276 rev/day
Decay rate:        1.0e-08 rev/day^2
Epoch rev:           33095
Checksum:              334

Satellite: SO-33
Catalog number: 25509
Epoch time:      03121.12511952
Element set:     835
Inclination:       31.4285 deg
RA of node:       109.0540 deg
Eccentricity:    0.0357848
Arg of perigee:   207.7899 deg
Mean anomaly:     150.3207 deg
Mean motion:   14.27495759 rev/day
Decay rate:       6.56e-06 rev/day^2
Epoch rev:           23554
Checksum:              312

Satellite: AO-40
Catalog number: 26609
Epoch time:      03120.91111259
Element set:     327
Inclination:        8.6079 deg
RA of node:        51.3327 deg
Eccentricity:    0.7957274
Arg of perigee:   169.5162 deg
Mean anomaly:     234.2012 deg
Mean motion:    1.25597080 rev/day
Decay rate:      -3.82e-06 rev/day^2
Epoch rev:            1148
Checksum:              285



Read previous mail | Read next mail


 20.09.2025 00:37:14lGo back Go up